Budapest Ferihegy, Hungary

10:37 PM CEST on October 01, 2016 (GMT +0200)
Ferihegy

Weather History for LHBP - January, 2014

Change the Weather History Date:

Friday, January 31, 2014

  Actual Average Record
Temperature  
Mean Temperature 29 °F -  
Max Temperature 32 °F 37 °F 53 °F (2000)
Min Temperature 26 °F 22 °F 10 °F (2012)
Degree Days  
Heating Degree Days 36    
Moisture  
Dew Point 21 °F    
Average Humidity 74    
Maximum Humidity 86    
Minimum Humidity 64    
Precipitation  
Precipitation 0.00 in - - ()
Sea Level Pressure  
Sea Level Pressure 30.25 in    
Wind  
Wind Speed 14 mph ()    
Max Wind Speed 22 mph    
Max Gust Speed -    
Visibility 5.8 miles    
Events Rain    
Averages and records for this station are not official NWS values.
T = Trace of Precipitation, MM = Missing Value Source: Averaged Metar Reports

Daily Weather History Graph

Daily Weather History Graph

Search for Another Location

Airport or City:

Trip Planner

Search our weather history database for the weather conditions in past years. The results will help you decide how hot, cold, wet, or windy it might be!

Date:

Astronomy

Jan. 31, 2014 Rise Set
Actual Time 7:10 AM CET 4:42 PM CET
Civil Twilight 6:37 AM CET 5:15 PM CET
Nautical Twilight 6:00 AM CET 5:52 PM CET
Astronomical Twilight 5:24 AM CET 6:28 PM CET
Moon 7:01 AM CET (1/31) 5:52 PM CET (1/31)
Length of Visible Light 10h 38m
Length of Day
9h 32m
New Moon, 0% of the Moon is Illuminated
Jan 31
New Moon
Feb 6
First Quarter
Feb 15
Full
Feb 22
Last Quarter
Mar 1
New

Hourly Weather History & Observations

Time (CET) Temp. Windchill Dew Point Humidity Pressure Visibility Wind Dir Wind Speed Gust Speed Precip Events Conditions
12:00 AM 32.0 °F 22.1 °F 26.6 °F 80% 30.21 in 3.7 mi East 13.8 mph - N/A   Unknown
12:30 AM 32.0 °F 21.2 °F 24.8 °F 75% 30.21 in 3.7 mi ESE 16.1 mph - N/A   Unknown
1:00 AM 30.2 °F 19.8 °F 24.8 °F 80% 30.21 in 5.0 mi ESE 13.8 mph - N/A   Unknown
1:30 AM 30.2 °F 18.1 °F 23.0 °F 75% 30.21 in 5.0 mi ESE 18.4 mph - N/A   Unknown
2:00 AM 30.2 °F 19.8 °F 23.0 °F 75% 30.21 in - ESE 13.8 mph - N/A   Clear
2:30 AM 30.2 °F 18.9 °F 23.0 °F 75% 30.21 in - ESE 16.1 mph - N/A   Clear
3:00 AM 28.4 °F 17.5 °F 21.2 °F 74% 30.21 in - ESE 13.8 mph - N/A   Clear
3:30 AM 28.4 °F 17.0 °F 19.4 °F 69% 30.21 in - ESE 15.0 mph - N/A   Clear
4:00 AM 28.4 °F 16.6 °F 19.4 °F 69% 30.21 in - ESE 16.1 mph - N/A   Clear
4:30 AM 28.4 °F 17.5 °F 21.2 °F 74% 30.21 in - ESE 13.8 mph - N/A   Clear
5:00 AM 28.4 °F 16.6 °F 21.2 °F 74% 30.21 in 6.2 mi ESE 16.1 mph - N/A Rain Light Freezing Rain
5:30 AM 28.4 °F 16.6 °F 21.2 °F 74% 30.21 in 6.2 mi ESE 16.1 mph - N/A   Mostly Cloudy
6:00 AM 28.4 °F 17.0 °F 21.2 °F 74% 30.21 in - ESE 15.0 mph - N/A   Clear
6:30 AM 28.4 °F 16.2 °F 21.2 °F 74% 30.21 in - ESE 17.3 mph - N/A   Clear
7:00 AM 28.4 °F 15.8 °F 21.2 °F 74% 30.21 in - ESE 18.4 mph - N/A   Clear
7:30 AM 26.6 °F 14.3 °F 19.4 °F 74% 30.24 in 6.2 mi ESE 16.1 mph - N/A   Mostly Cloudy
8:00 AM 28.4 °F 16.2 °F 24.8 °F 86% 30.24 in 6.2 mi ESE 17.3 mph - N/A   Mostly Cloudy
8:30 AM 28.4 °F 15.8 °F 24.8 °F 86% 30.24 in 6.2 mi ESE 18.4 mph - N/A   Mostly Cloudy
9:00 AM 28.4 °F 15.8 °F 24.8 °F 86% 30.24 in 6.2 mi ESE 18.4 mph - N/A   Mostly Cloudy
9:30 AM 28.4 °F 16.2 °F 24.8 °F 86% 30.24 in 6.2 mi ESE 17.3 mph - N/A   Scattered Clouds
10:00 AM 28.4 °F 16.6 °F 24.8 °F 86% 30.27 in 6.2 mi SE 16.1 mph - N/A   Scattered Clouds
10:30 AM 30.2 °F 18.5 °F 24.8 °F 80% 30.27 in 6.2 mi ESE 17.3 mph - N/A   Scattered Clouds
11:00 AM 30.2 °F 18.5 °F 23.0 °F 75% 30.27 in 6.2 mi SE 17.3 mph - N/A   Scattered Clouds
11:30 AM 30.2 °F 18.1 °F 21.2 °F 69% 30.27 in 6.2 mi ESE 18.4 mph - N/A   Scattered Clouds
12:00 PM 30.2 °F 17.1 °F 21.2 °F 69% 30.27 in 6.2 mi ESE 21.9 mph - N/A   Scattered Clouds
12:30 PM 30.2 °F 18.1 °F 21.2 °F 69% 30.27 in 6.2 mi ESE 18.4 mph - N/A   Scattered Clouds
1:00 PM 30.2 °F 17.8 °F 19.4 °F 64% 30.24 in 6.2 mi ESE 19.6 mph - N/A   Partly Cloudy
1:30 PM 32.0 °F 20.5 °F 21.2 °F 64% 30.24 in 6.2 mi ESE 18.4 mph - N/A   Scattered Clouds
2:00 PM 30.2 °F 18.5 °F 21.2 °F 69% 30.24 in - ESE 17.3 mph - N/A   Clear
2:30 PM 30.2 °F 18.5 °F 21.2 °F 69% 30.24 in - ESE 17.3 mph - N/A   Clear
3:00 PM 30.2 °F 19.3 °F 21.2 °F 69% 30.24 in - SE 15.0 mph - N/A   Clear
3:30 PM 30.2 °F 18.5 °F 21.2 °F 69% 30.24 in - ESE 17.3 mph - N/A   Clear
4:00 PM 30.2 °F 17.8 °F 21.2 °F 69% 30.27 in - SE 19.6 mph - N/A   Clear
4:30 PM 30.2 °F 19.3 °F 19.4 °F 64% 30.27 in - SE 15.0 mph - N/A   Clear
5:00 PM 28.4 °F 18.0 °F 19.4 °F 69% 30.27 in - ESE 12.7 mph - N/A   Clear
5:30 PM 26.6 °F 17.5 °F 19.4 °F 74% 30.30 in - ESE 9.2 mph - N/A   Clear
6:00 PM 26.6 °F 17.5 °F 19.4 °F 74% 30.30 in - East 9.2 mph - N/A   Clear
6:30 PM 26.6 °F 17.5 °F 19.4 °F 74% 30.30 in - East 9.2 mph - N/A   Clear
7:00 PM 26.6 °F 17.5 °F 19.4 °F 74% 30.30 in - East 9.2 mph - N/A   Clear
7:30 PM 26.6 °F 16.8 °F 19.4 °F 74% 30.30 in - East 10.4 mph - N/A   Clear
8:00 PM 26.6 °F 15.7 °F 19.4 °F 74% 30.30 in - East 12.7 mph - N/A   Clear
8:30 PM 28.4 °F 19.1 °F 19.4 °F 69% 30.30 in - ESE 10.4 mph - N/A   Clear
9:00 PM 26.6 °F 15.7 °F 21.2 °F 80% 30.30 in - ESE 12.7 mph - N/A   Clear
9:30 PM 26.6 °F 16.2 °F 19.4 °F 74% 30.30 in - ESE 11.5 mph - N/A   Clear
10:00 PM 26.6 °F 16.2 °F 19.4 °F 74% 30.30 in - SE 11.5 mph - N/A   Clear
10:30 PM 26.6 °F 16.2 °F 19.4 °F 74% 30.33 in - SE 11.5 mph - N/A   Clear
11:00 PM 26.6 °F 15.7 °F 19.4 °F 74% 30.30 in - SE 12.7 mph - N/A   Clear
11:30 PM 26.6 °F 16.8 °F 19.4 °F 74% 30.30 in - SE 10.4 mph - N/A   Clear